Location: Unspecified
(50.0000°N, 15.0000°E)
Time: 03:01:12
(UTC+02:00)

ISS - Pass Details

Date: 18 September 2021
Orbit: 417 x 423 km, 51.6° (Epoch: 27 October)

Event Time Altitude Azimuth Distance (km) Brightness Sun altitude
Rises 20:46:52 0° 233° (SW) 2,356 0.5 -16.4°
Reaches altitude 10° 20:49:00 10° 228° (SW) 1,496 -0.7 -16.8°
Maximum altitude 20:52:14 48° 153° (SSE) 557 -3.5 -17.2°
Enters shadow 20:52:22 48° 144° (SE) 560 -3.5 -17.3°
